Time,TemperatureF,DewpointF,PressureIn,WindDirection,WindDirectionDegrees,WindSpeedMPH,WindSpeedGustMPH,Humidity,HourlyPrecipIn,Conditions,Clouds,dailyrainin,SolarRadiationWatts/m^2,SoftwareType,DateUTC
2013-09-02 00:00:00,67.0,55.0,-100.00,North,353,1.0,6.0,65,0.00,,,0.00,0.000000,,2013-09-02 07:00:00,
2013-09-02 00:42:00,67.0,55.0,-100.00,North,353,1.0,6.0,65,0.00,,,0.00,0.000000,,2013-09-02 07:42:00,
2013-09-02 00:52:00,67.0,55.0,-100.00,North,353,1.0,6.0,65,0.00,,,0.00,0.000000,,2013-09-02 07:52:00,
2013-09-02 01:00:00,66.0,55.0,-100.00,NNW,338,0.0,6.0,68,0.00,,,0.00,0.000000,,2013-09-02 08:00:00,
2013-09-02 01:22:00,66.0,55.0,-100.00,NNW,338,0.0,6.0,68,0.00,,,0.00,0.000000,,2013-09-02 08:22:00,
2013-09-02 01:32:00,66.0,55.0,-100.00,NNW,338,0.0,6.0,68,0.00,,,0.00,0.000000,,2013-09-02 08:32:00,
2013-09-02 01:42:00,66.0,55.0,-100.00,NNW,338,0.0,6.0,68,0.00,,,0.00,0.000000,,2013-09-02 08:42:00,
2013-09-02 01:52:00,66.0,55.0,-100.00,NNW,338,0.0,6.0,68,0.00,,,0.00,0.000000,,2013-09-02 08:52:00,
2013-09-02 02:00:00,64.0,52.0,-100.00,North,352,2.0,4.0,66,0.00,,,0.00,0.000000,,2013-09-02 09:00:00,
2013-09-02 02:22:00,64.0,52.0,-100.00,North,352,2.0,4.0,66,0.00,,,0.00,0.000000,,2013-09-02 09:22:00,
2013-09-02 02:34:00,64.0,52.0,-100.00,North,352,2.0,4.0,66,0.00,,,0.00,0.000000,,2013-09-02 09:34:00,
2013-09-02 02:44:00,64.0,52.0,-100.00,North,352,2.0,4.0,66,0.00,,,0.00,0.000000,,2013-09-02 09:44:00,
2013-09-02 02:53:00,64.0,52.0,-100.00,North,352,2.0,4.0,66,0.00,,,0.00,0.000000,,2013-09-02 09:53:00,
2013-09-02 03:00:00,64.0,52.0,-100.00,NNE,12,3.0,7.0,65,0.00,,,0.00,0.000000,,2013-09-02 10:00:00,
2013-09-02 03:23:00,64.0,52.0,-100.00,NNE,12,3.0,7.0,65,0.00,,,0.00,0.000000,,2013-09-02 10:23:00,
2013-09-02 03:33:00,64.0,52.0,-100.00,NNE,12,3.0,7.0,65,0.00,,,0.00,0.000000,,2013-09-02 10:33:00,
2013-09-02 03:42:00,64.0,52.0,-100.00,NNE,12,3.0,7.0,65,0.00,,,0.00,0.000000,,2013-09-02 10:42:00,
2013-09-02 03:53:00,64.0,52.0,-100.00,NNE,12,3.0,7.0,65,0.00,,,0.00,0.000000,,2013-09-02 10:53:00,
2013-09-02 04:00:00,64.0,53.0,-100.00,NNW,343,1.0,6.0,67,0.00,,,0.00,0.000000,,2013-09-02 11:00:00,
2013-09-02 04:22:00,64.0,53.0,-100.00,NNW,343,1.0,6.0,67,0.00,,,0.00,0.000000,,2013-09-02 11:22:00,
2013-09-02 04:33:00,64.0,53.0,-100.00,NNW,343,1.0,6.0,67,0.00,,,0.00,0.000000,,2013-09-02 11:33:00,
2013-09-02 04:42:00,64.0,53.0,-100.00,NNW,343,1.0,6.0,67,0.00,,,0.00,0.000000,,2013-09-02 11:42:00,
2013-09-02 04:52:00,64.0,53.0,-100.00,NNW,343,1.0,6.0,67,0.00,,,0.00,0.000000,,2013-09-02 11:52:00,
2013-09-02 05:00:00,65.0,53.0,-100.00,North,9,1.0,5.0,66,0.00,,,0.00,0.000000,,2013-09-02 12:00:00,
2013-09-02 05:21:00,65.0,53.0,-100.00,North,9,1.0,5.0,66,0.00,,,0.00,0.000000,,2013-09-02 12:21:00,
2013-09-02 05:32:00,65.0,53.0,-100.00,North,9,1.0,5.0,66,0.00,,,0.00,0.000000,,2013-09-02 12:32:00,
2013-09-02 05:43:00,65.0,53.0,-100.00,North,9,1.0,5.0,66,0.00,,,0.00,0.000000,,2013-09-02 12:43:00,
2013-09-02 05:52:00,65.0,53.0,-100.00,North,9,1.0,5.0,66,0.00,,,0.00,0.000000,,2013-09-02 12:52:00,
2013-09-02 06:00:00,65.0,53.0,-100.00,North,5,2.0,5.0,66,0.00,,,0.00,0.000000,,2013-09-02 13:00:00,
2013-09-02 06:22:00,65.0,53.0,-100.00,North,5,2.0,5.0,66,0.00,,,0.00,0.000000,,2013-09-02 13:22:00,
2013-09-02 06:32:00,65.0,53.0,-100.00,North,5,2.0,5.0,66,0.00,,,0.00,0.000000,,2013-09-02 13:32:00,
2013-09-02 06:42:00,65.0,53.0,-100.00,North,5,2.0,5.0,66,0.00,,,0.00,0.000000,,2013-09-02 13:42:00,
2013-09-02 06:52:00,65.0,53.0,-100.00,North,5,2.0,5.0,66,0.00,,,0.00,0.000000,,2013-09-02 13:52:00,
2013-09-02 07:00:00,65.0,53.0,-100.00,North,11,1.0,5.0,65,0.00,,,0.00,0.000000,,2013-09-02 14:00:00,
2013-09-02 07:22:00,65.0,53.0,-100.00,North,11,1.0,5.0,65,0.00,,,0.00,0.000000,,2013-09-02 14:22:00,
2013-09-02 07:32:00,65.0,53.0,-100.00,North,11,1.0,5.0,65,0.00,,,0.00,0.000000,,2013-09-02 14:32:00,
2013-09-02 07:43:00,65.0,53.0,-100.00,North,11,1.0,5.0,65,0.00,,,0.00,0.000000,,2013-09-02 14:43:00,
2013-09-02 07:52:00,65.0,53.0,-100.00,North,11,1.0,5.0,65,0.00,,,0.00,0.000000,,2013-09-02 14:52:00,
2013-09-02 08:23:00,64.0,44.0,-100.00,NNE,17,2.0,4.0,49,0.00,,,0.00,18.000000,,2013-09-02 15:23:00,
2013-09-02 08:34:00,64.0,44.0,-100.00,NNE,17,2.0,4.0,49,0.00,,,0.00,18.000000,,2013-09-02 15:34:00,
2013-09-02 08:45:00,64.0,44.0,-100.00,NNE,17,2.0,4.0,49,0.00,,,0.00,18.000000,,2013-09-02 15:45:00,
2013-09-02 09:00:00,73.0,49.0,-100.00,NNE,18,3.0,4.0,42,0.00,,,-99.99,119.000000,,2013-09-02 16:00:00,
2013-09-02 09:43:00,73.0,49.0,-100.00,NNE,18,3.0,4.0,42,0.00,,,-99.99,119.000000,,2013-09-02 16:43:00,
2013-09-02 09:53:00,73.0,49.0,-100.00,NNE,18,3.0,4.0,42,0.00,,,-99.99,119.000000,,2013-09-02 16:53:00,
2013-09-02 10:00:00,77.0,44.0,-100.00,NE,42,3.0,6.0,31,0.00,,,0.00,257.000000,,2013-09-02 17:00:00,
2013-09-02 10:45:00,77.0,44.0,-100.00,NE,42,3.0,6.0,31,0.00,,,0.00,257.000000,,2013-09-02 17:45:00,
2013-09-02 10:52:00,77.0,44.0,-100.00,NE,42,3.0,6.0,31,0.00,,,0.00,257.000000,,2013-09-02 17:52:00,
2013-09-02 11:00:00,80.0,43.0,-100.00,SSE,168,4.0,8.0,27,0.00,,,0.00,593.000000,,2013-09-02 18:00:00,
2013-09-02 11:42:00,80.0,43.0,-100.00,SSE,168,4.0,8.0,27,0.00,,,0.00,593.000000,,2013-09-02 18:42:00,
2013-09-02 11:52:00,80.0,43.0,-100.00,SSE,168,4.0,8.0,27,0.00,,,0.00,593.000000,,2013-09-02 18:52:00,
2013-09-02 12:00:00,85.0,43.0,-100.00,NNE,19,4.0,11.0,23,0.00,,,0.00,793.000000,,2013-09-02 19:00:00,
2013-09-02 12:42:00,85.0,43.0,-100.00,NNE,19,4.0,11.0,23,0.00,,,0.00,793.000000,,2013-09-02 19:42:00,
2013-09-02 12:52:00,85.0,43.0,-100.00,NNE,19,4.0,11.0,23,0.00,,,0.00,793.000000,,2013-09-02 19:52:00,
2013-09-02 13:00:00,88.0,42.0,-100.00,NE,43,4.0,13.0,20,0.00,,,0.00,941.000000,,2013-09-02 20:00:00,
2013-09-02 13:22:00,88.0,42.0,-100.00,NE,43,4.0,13.0,20,0.00,,,0.00,941.000000,,2013-09-02 20:22:00,
2013-09-02 13:33:00,88.0,42.0,-100.00,NE,43,4.0,13.0,20,0.00,,,0.00,941.000000,,2013-09-02 20:33:00,
2013-09-02 13:42:00,88.0,42.0,-100.00,NE,43,4.0,13.0,20,0.00,,,0.00,941.000000,,2013-09-02 20:42:00,
2013-09-02 13:52:00,88.0,42.0,-100.00,NE,43,4.0,13.0,20,0.00,,,0.00,941.000000,,2013-09-02 20:52:00,
2013-09-02 14:00:00,90.0,43.0,-100.00,SE,131,3.0,11.0,20,0.00,,,0.00,1036.000000,,2013-09-02 21:00:00,
2013-09-02 14:23:00,90.0,43.0,-100.00,SE,131,3.0,11.0,20,0.00,,,0.00,1036.000000,,2013-09-02 21:23:00,
2013-09-02 14:34:00,90.0,43.0,-100.00,SE,131,3.0,11.0,20,0.00,,,0.00,1036.000000,,2013-09-02 21:34:00,
2013-09-02 14:44:00,90.0,43.0,-100.00,SE,131,3.0,11.0,20,0.00,,,0.00,1036.000000,,2013-09-02 21:44:00,
2013-09-02 14:55:00,90.0,43.0,-100.00,SE,131,3.0,11.0,20,0.00,,,0.00,1036.000000,,2013-09-02 21:55:00,
2013-09-02 15:00:00,89.0,44.0,-100.00,South,183,8.0,21.0,21,-99.99,,,0.00,993.000000,,2013-09-02 22:00:00,
2013-09-02 15:24:00,89.0,44.0,-100.00,South,183,8.0,21.0,21,-99.99,,,0.00,993.000000,,2013-09-02 22:24:00,
2013-09-02 15:33:00,89.0,44.0,-100.00,South,183,8.0,21.0,21,-99.99,,,0.00,993.000000,,2013-09-02 22:33:00,
2013-09-02 15:44:00,89.0,44.0,-100.00,South,183,8.0,21.0,21,-99.99,,,0.00,993.000000,,2013-09-02 22:44:00,
2013-09-02 15:54:00,89.0,44.0,-100.00,South,183,8.0,21.0,21,-99.99,,,0.00,993.000000,,2013-09-02 22:54:00,
2013-09-02 16:00:00,82.0,37.0,-100.00,SSW,202,7.0,20.0,20,0.00,,,0.00,449.000000,,2013-09-02 23:00:00,
2013-09-02 16:22:00,82.0,37.0,-100.00,SSW,202,7.0,20.0,20,0.00,,,0.00,449.000000,,2013-09-02 23:22:00,
2013-09-02 16:34:00,82.0,37.0,-100.00,SSW,202,7.0,20.0,20,0.00,,,0.00,449.000000,,2013-09-02 23:34:00,
2013-09-02 16:42:00,82.0,37.0,-100.00,SSW,202,7.0,20.0,20,0.00,,,0.00,449.000000,,2013-09-02 23:42:00,
2013-09-02 16:52:00,82.0,37.0,-100.00,SSW,202,7.0,20.0,20,0.00,,,0.00,449.000000,,2013-09-02 23:52:00,
2013-09-02 17:00:00,86.0,45.0,-100.00,NNW,344,5.0,18.0,24,0.00,,,0.00,362.000000,,2013-09-03 00:00:00,
2013-09-02 17:22:00,86.0,45.0,-100.00,NNW,344,5.0,18.0,24,0.00,,,0.00,362.000000,,2013-09-03 00:22:00,
2013-09-02 17:32:00,86.0,45.0,-100.00,NNW,344,5.0,18.0,24,0.00,,,0.00,362.000000,,2013-09-03 00:32:00,
2013-09-02 17:42:00,86.0,45.0,-100.00,NNW,344,5.0,18.0,24,0.00,,,0.00,362.000000,,2013-09-03 00:42:00,
2013-09-02 17:52:00,86.0,45.0,-100.00,NNW,344,5.0,18.0,24,0.00,,,0.00,362.000000,,2013-09-03 00:52:00,
2013-09-02 18:00:00,84.0,51.0,-100.00,WNW,282,7.0,14.0,32,0.00,,,0.00,534.000000,,2013-09-03 01:00:00,
2013-09-02 18:22:00,84.0,51.0,-100.00,WNW,282,7.0,14.0,32,0.00,,,0.00,534.000000,,2013-09-03 01:22:00,
2013-09-02 18:32:00,84.0,51.0,-100.00,WNW,282,7.0,14.0,32,0.00,,,0.00,534.000000,,2013-09-03 01:32:00,
2013-09-02 18:42:00,84.0,51.0,-100.00,WNW,282,7.0,14.0,32,0.00,,,0.00,534.000000,,2013-09-03 01:42:00,
2013-09-02 18:52:00,84.0,51.0,-100.00,WNW,282,7.0,14.0,32,0.00,,,0.00,534.000000,,2013-09-03 01:52:00,
2013-09-02 19:00:00,79.0,50.0,-100.00,NNE,24,4.0,18.0,37,-99.99,,,0.00,184.000000,,2013-09-03 02:00:00,
2013-09-02 19:42:00,79.0,50.0,-100.00,NNE,24,4.0,18.0,37,-99.99,,,0.00,184.000000,,2013-09-03 02:42:00,
2013-09-02 19:52:00,79.0,50.0,-100.00,NNE,24,4.0,18.0,37,-99.99,,,0.00,184.000000,,2013-09-03 02:52:00,
2013-09-02 20:00:00,74.0,51.0,-100.00,NE,35,4.0,16.0,44,0.00,,,0.00,54.000000,,2013-09-03 03:00:00,
2013-09-02 20:23:00,74.0,51.0,-100.00,NE,35,4.0,16.0,44,0.00,,,0.00,54.000000,,2013-09-03 03:23:00,
2013-09-02 20:35:00,74.0,51.0,-100.00,NE,35,4.0,16.0,44,0.00,,,0.00,54.000000,,2013-09-03 03:35:00,
2013-09-02 20:45:00,74.0,51.0,-100.00,NE,35,4.0,16.0,44,0.00,,,0.00,54.000000,,2013-09-03 03:45:00,
2013-09-02 20:55:00,74.0,51.0,-100.00,NE,35,4.0,16.0,44,0.00,,,0.00,54.000000,,2013-09-03 03:55:00,
2013-09-02 21:00:00,71.0,50.0,-100.00,WNW,291,0.0,13.0,48,0.00,,,0.00,4.000000,,2013-09-03 04:00:00,
2013-09-02 21:25:00,71.0,50.0,-100.00,WNW,291,0.0,13.0,48,0.00,,,0.00,4.000000,,2013-09-03 04:25:00,
2013-09-02 21:34:00,71.0,50.0,-100.00,WNW,291,0.0,13.0,48,0.00,,,0.00,4.000000,,2013-09-03 04:34:00,
2013-09-02 21:44:00,71.0,50.0,-100.00,WNW,291,0.0,13.0,48,0.00,,,0.00,4.000000,,2013-09-03 04:44:00,
2013-09-02 21:53:00,71.0,50.0,-100.00,WNW,291,0.0,13.0,48,0.00,,,0.00,4.000000,,2013-09-03 04:53:00,
2013-09-02 22:00:00,70.0,50.0,-100.00,West,274,2.0,12.0,50,0.00,,,0.00,0.000000,,2013-09-03 05:00:00,
2013-09-02 22:23:00,70.0,50.0,-100.00,West,274,2.0,12.0,50,0.00,,,0.00,0.000000,,2013-09-03 05:23:00,
2013-09-02 22:34:00,70.0,50.0,-100.00,West,274,2.0,12.0,50,0.00,,,0.00,0.000000,,2013-09-03 05:34:00,
2013-09-02 22:43:00,70.0,50.0,-100.00,West,274,2.0,12.0,50,0.00,,,0.00,0.000000,,2013-09-03 05:43:00,
2013-09-02 22:52:00,70.0,50.0,-100.00,West,274,2.0,12.0,50,0.00,,,0.00,0.000000,,2013-09-03 05:52:00,
2013-09-02 23:00:00,70.0,52.0,-100.00,North,356,0.0,7.0,53,0.00,,,0.00,0.000000,,2013-09-03 06:00:00,
2013-09-02 23:43:00,70.0,52.0,-100.00,North,356,0.0,7.0,53,0.00,,,0.00,0.000000,,2013-09-03 06:43:00,
2013-09-02 23:52:00,70.0,52.0,-100.00,North,356,0.0,7.0,53,0.00,,,0.00,0.000000,,2013-09-03 06:52:00,